[Date Prev][Date Next][Thread Prev][Thread Next] - [Date Index][Thread Index][Author Index]
2 Line ISS Keps 10-27
- Subject: [sarex] 2 Line ISS Keps 10-27
- From: "Dave Larsen PhD" <doc@xxxxxxxxxxx>
- Date: Sat, 27 Oct 2001 03:19:00 -0700
ISS
1 25544U 98067A 01300.10731008 .00064606 00000-0 83087-3 0 6532
2 25544 51.6391 145.2233 0008737 250.1581 255.4926 15.58417956167664
----
Via the sarex mailing list at AMSAT.ORG courtesy of AMSAT-NA.
To unsubscribe, send "unsubscribe sarex" to Majordomo@amsat.org
AMSAT Home